Location: NJAA Observatory
(40.6819°N, 74.8979°W)
Time: 22:01:35
(UTC-04:00)

Courier 1B - All Passes

Search period start: 28 June 2016 00:00
Search period end: 08 July 2016 00:00
Orbit: 962 x 1209 km, 28.3° (Epoch: 28 June)

Date Brightness Start Highest point End Pass type
(mag) Time Alt. Az. Time Alt. Az. Time Alt. Az.
28 Jun - 02:40:14 10° SSW 02:45:22 21° SSE 02:50:41 10° ESE visible
28 Jun - 04:32:15 10° SW 04:38:41 31° S 04:45:21 10° ESE visible
28 Jun - 06:25:45 10° WSW 06:32:12 30° S 06:38:46 10° SE daylight
28 Jun - 08:20:47 10° WSW 08:25:32 17° SSW 08:30:15 10° SSE daylight
29 Jun - 01:47:35 10° SSW 01:51:48 17° SSE 01:56:10 10° ESE visible
29 Jun - 03:38:50 10° SW 03:44:59 29° S 03:51:24 10° ESE visible
29 Jun - 05:31:59 10° WSW 05:38:28 31° S 05:45:09 10° SE daylight
29 Jun - 07:26:25 10° WSW 07:31:53 21° SSW 07:37:22 10° SSE daylight
30 Jun - 00:55:33 10° S 00:58:18 12° SSE 01:01:05 10° SE visible
30 Jun - 02:45:34 10° SW 02:51:20 26° SSE 02:57:22 10° ESE visible
30 Jun - 04:38:19 10° WSW 04:44:44 32° S 04:51:25 10° ESE visible
30 Jun - 06:32:19 10° WSW 06:38:12 24° SSW 06:44:11 10° SE daylight
30 Jun - 08:29:52 10° SW 08:31:23 11° SSW 08:32:54 10° SSW daylight
01 Jul - 01:52:29 10° SSW 01:57:44 22° SSE 02:03:13 10° ESE visible
01 Jul - 03:44:47 10° WSW 03:51:03 31° S 03:57:35 10° ESE visible
01 Jul - 05:38:24 10° WSW 05:44:30 27° SSW 05:50:47 10° SE daylight
01 Jul - 07:34:02 10° SW 07:37:46 14° SSW 07:41:33 10° S daylight
02 Jul - 00:59:39 10° SSW 01:04:12 19° SSE 01:08:54 10° ESE visible
02 Jul - 02:51:22 10° SW 02:57:23 30° S 03:03:42 10° ESE visible
02 Jul - 04:44:39 10° WSW 04:50:48 29° S 04:57:14 10° SE visible
02 Jul - 06:39:24 10° WSW 06:44:08 18° SSW 06:48:58 10° SSE daylight
03 Jul - 00:07:13 10° S 00:10:42 15° SSE 00:14:16 10° SE night (unlit)
03 Jul - 01:58:03 10° SW 02:03:45 27° S 02:09:44 10° ESE visible
03 Jul - 03:51:00 10° WSW 03:57:07 30° S 04:03:34 10° SE visible
03 Jul - 05:45:12 10° WSW 05:50:30 21° SSW 05:55:57 10° SSE daylight
03 Jul - 23:15:54 10° SSE 23:17:15 11° SSE 23:18:35 10° SE night (unlit)
04 Jul - 01:04:54 10° SW 01:10:11 24° SSE 01:15:42 10° ESE visible
04 Jul - 02:57:27 10° WSW 03:03:28 30° S 03:09:48 10° ESE visible
04 Jul - 04:51:14 10° WSW 04:56:51 24° SSW 05:02:40 10° SE visible
04 Jul - 06:48:13 10° SW 06:50:03 11° SSW 06:51:53 10° SSW daylight
05 Jul - 00:11:55 10° SSW 00:16:39 20° SSE 00:21:33 10° ESE night (unlit)
05 Jul - 02:04:00 10° SW 02:09:50 30° S 02:15:58 10° ESE visible
05 Jul - 03:57:27 10° WSW 04:03:12 26° S 04:09:12 10° SE visible
05 Jul - 05:52:48 10° SW 05:56:27 14° SSW 06:00:10 10° S daylight
05 Jul - 23:19:13 10° SSW 23:23:10 17° SSE 23:27:13 10° ESE night (unlit)
06 Jul - 01:10:39 10° SW 01:16:15 28° S 01:22:06 10° ESE visible
06 Jul - 03:03:47 10° WSW 03:09:34 28° S 03:15:38 10° SE visible
06 Jul - 04:58:21 10° WSW 05:02:51 17° SSW 05:07:29 10° SSE visible
06 Jul - 22:27:00 10° S 22:29:44 13° SSE 22:32:29 10° SE visible
07 Jul - 00:17:26 10° SW 00:22:42 25° SSE 00:28:11 10° ESE night (unlit)
07 Jul - 02:10:13 10° WSW 02:15:57 29° S 02:21:58 10° SE visible
07 Jul - 04:04:17 10° WSW 04:09:14 20° SSW 04:14:25 10° SSE visible
07 Jul - 23:24:19 10° SSW 23:29:11 22° SSE 23:34:12 10° ESE visible
